Tracking 17154 objects as of 2-August-2015
HD Live streaming from Space Station

SL-8 R/B

Track SL-8 R/B now!
10-day predictions
SL-8 R/B is classified as:


NORAD ID: 13917
Int'l Code: 1983-021B
Perigee: 961.4 km
Apogee: 1,003.6 km
Inclination: 82.9 °
Period: 104.6 minutes
Semi major axis: 7353 km
RCS: 4.8067 m2 (large)
Launch date: March 24, 1983
Source: Commonwealth of Independent States (former USSR) (CIS)

Note: This is a ROCKET BODY
Your satellite tracking list
Your tracking list is empty





NASA's NSSDC Master Catalog

Two Line Element Set (TLE):
1 13917U 83021B   15214.07303520  .00000145  00000-0  13144-3 0  9994
2 13917 082.9419 035.8060 0028677 010.3493 107.5614 13.76771708625316

Source of the keplerian elements: AFSPC

N2YO: 277